Location: Baix
(44.7118°N, 4.7648°E)
Time: 11:45:59
(UTC+00:00)

Tiros 1 despin weight - Pass Details

Date: 03 December 2020
Orbit: 594 x 641 km, 48.2° (Epoch: 17 January)

Event Time Altitude Azimuth Distance (km) Brightness Sun altitude
Rises 17:21:11 0° 279° (W) 2,940 ? -13.8°
Reaches altitude 10° 17:25:38 10° 240° (WSW) 2,017 ? -14.5°
Maximum altitude 17:26:28 10° 229° (SW) 1,985 ? -14.7°
Drops below altitude 10° 17:27:19 10° 219° (SW) 2,012 ? -14.8°
Sets 17:31:44 0° 179° (S) 2,900 ? -15.6°
